Simultaneous Nadir Overpasses (SNOs) Predictions

Prediction of SNOs between AQUA and METOP-A Satellite Orbit:

Table of predicted SNOs for the next 14.0 days since TLE Epoch: 7/11/2014
Index Date (AQUA) Time (AQUA) Lat,Lon (AQUA) SZA (AQUA ) Date (METOP-A) Time (METOP-A) Lat,Lon (METOP-A) SZA (METOP-A ) Distance(km) Time Diff (sec)
1 07/12/2014 02:20:09 -73.84, -40.75 128.10 07/12/2014 02:19:51 -73.83, -40.77 128.11 1.37 18
2 07/12/2014 03:09:38 73.91, 126.72 51.99 07/12/2014 03:10:29 73.91, 126.77 51.98 1.32 51
3 07/14/2014 21:04:50 73.55,-141.31 52.00 07/14/2014 21:03:40 73.48,-142.50 52.00 38.22 70
4 07/14/2014 21:54:21 -73.83, 25.71 127.69 07/14/2014 21:54:15 -73.84, 25.65 127.68 2.14 6
5 07/14/2014 22:43:50 73.91,-166.82 52.40 07/14/2014 22:44:53 73.91,-166.83 52.40 0.61 63
6 07/17/2014 16:39:07 73.78, -75.38 52.71 07/17/2014 16:37:59 73.78, -75.41 52.72 1.28 68
7 07/17/2014 17:28:34 -73.85, 92.11 127.20 07/17/2014 17:28:40 -73.84, 92.05 127.22 2.68 6
8 07/17/2014 18:18:04 73.99,-100.56 52.95 07/17/2014 18:19:16 74.01,-100.20 52.94 11.28 72
9 07/20/2014 12:13:19 73.79, -8.95 53.23 07/20/2014 12:12:23 73.81, -8.92 53.27 2.70 56
10 07/20/2014 13:02:46 -73.86, 158.54 126.69 07/20/2014 13:03:04 -73.88, 158.56 126.67 2.08 18
11 07/20/2014 13:52:25 74.46, -35.22 53.98 07/20/2014 13:53:31 74.49, -32.57 53.89 78.73 66
12 07/23/2014 07:47:29 73.78, 57.53 53.78 07/23/2014 07:46:47 73.80, 57.44 53.80 3.02 42
13 07/23/2014 08:36:56 -73.85,-134.97 126.15 07/23/2014 08:37:28 -73.86,-135.07 126.13 3.55 32




NCC Satellite Simultaneous Nadir Overpasses (SNOs) Prediction Service
